Notices

What's New in latest Release from April 7th, 2021:

- Updated Glossary, including Speed of Maximum Gust, and Total Hourly Precipitation

- Updated national and regional climate services offices contacts and prices information

- Addition of station inventory lists for 1981-2010, 1971-2000, and 1961-1990 Normals.

If you haven't already, please take our survey and provide feedback about our website: https://eccc.sondage-survey.ca/f/LanguageSelection.aspx?s=442ca660-fcf1-47c0-95a9-59707d6fd709

Hourly Data Report for December 22, 2019

SAINT JOHN A
NEW BRUNSWICK
Current Station Operator: NAVCAN

45°18'58.000" N
65°53'24.000" W
108.80 m
8104901
71609
YSJ

Download Data

Hourly Data (December 2019)
Hourly Data Report for December 22, 2019
TIME
LST
Temp Definition
°C
Dew Point Definition
°C
Rel Hum Definition
%
Precip. Amount Definition
mm

Wind Dir Definition
10's deg

Wind Spd Definition
km/h
Visibility Definition
km
Stn Press Definition
kPa
Hmdx Definition


Wind Chill Definition


Weather Definition


00:00 -10.3 -11.4 92   5 5 24.1 101.63   -13 LegendNANA
01:00 -10.0 -11.1 91   36 2 24.1 101.57   -11 LegendNANA
02:00 -11.2 -12.4 91   9 4 24.1 101.56   -14 Cloudy
03:00 -11.4 -12.6 91   1 3 24.1 101.54   -13 LegendNANA
04:00 -11.0 -12.3 90   36 1 24.1 101.50   -12 LegendNANA
05:00 -10.5 -11.9 89   3 7 24.1 101.43   -15 Mostly Cloudy
06:00 -8.2 -9.9 88   36 5 24.1 101.39   -11 LegendNANA
07:00 -7.1 -8.4 90   4 3 24.1 101.30   -9 LegendNANA
08:00 -5.9 -7.3 90   36 2 24.1 101.24   -7 Cloudy
09:00 -4.3 -5.1 94   35 5 4.0 101.19   -6 Snow
10:00 -2.2 -2.7 96   36 1 19.3 101.11   -3 Snow
11:00 1.3 0.6 96   16 13 19.3 100.97     Cloudy
12:00 1.8 1.1 95   19 12 9.7 100.84     Rain,Fog
13:00 2.1 1.4 95   23 16 9.7 100.69     Rain,Fog
14:00 1.7 1.0 95   24 8 9.7 100.58     Rain,Fog
15:00 0.9 0.4 97   26 9 4.8 100.52     Rain,Fog
16:00 0.4 0.1 98   20 9 4.0 100.42     Rain,Snow,Fog
17:00 0.4 0.2 98   24 8 2.4 100.39     Snow
18:00 0.5 0.3 99   17 5 4.8 100.28     Rain,Snow
19:00 1.8 1.6 99   22 11 9.7 100.20     Rain,Fog
20:00 2.6 2.0 96   26 11 8.1 100.18     Fog
21:00 1.5 0.8 95   26 16 16.1 100.18     LegendNANA
22:00 0.5 -0.3 94   28 10 24.1 100.15     LegendNANA
23:00 -0.1 -1.3 91   31 16 16.1 100.12   -5 Cloudy

Notes on Data Quality.

Legend

  • E = Estimated
  • M = Missing
  • NA = Not Available*
  • [empty] = Indicates an unobserved value
Date modified: